START_TIME,STEP,MOV.,M34,t_acc.,L5,t_acc.,L18,t_acc.,L14,t_acc.
1979-07-28 00:00:23.920 ,0,0,0.,12.0,0.,12.0,0.,12.0,0.,12.0
1979-07-28 00:00:35.920 ,0,0,0.,12.0,0.,12.0,0.,12.0,0.,12.0
1979-07-28 00:00:47.920 ,1,1,0.,12.0,0.,12.0,0.,12.0,0.,12.0
1979-07-28 00:00:59.920 ,1,1,0.,12.0,0.,12.0,0.,12.0,0.,12.0
1979-07-28 00:01:11.920 ,1,0,0.,12.0,0.,12.0,0.,12.0,0.,12.0
1979-07-28 00:01:23.920 ,1,0,0.,12.0,0.,12.0,0.,12.0,0.,12.0
1979-07-28 00:01:35.920 ,2,1,0.,12.0,0.,12.0,0.,12.0,0.,12.0
1979-07-28 00:01:47.920 ,2,1,0.,12.0,0.,12.0,0.,12.0,0.,12.0
1979-07-28 00:01:59.920 ,2,0,0.,12.0,0.,12.0,0.,12.0,0.,12.0
1979-07-28 00:02:11.920 ,2,0,1.,12.0,0.,12.0,0.,12.0,0.,12.0
1979-07-28 00:02:23.920 ,3,1,0.,12.0,0.,12.0,0.,12.0,0.,12.0
1979-07-28 00:02:35.920 ,3,1,1.,12.0,0.,12.0,0.,12.0,0.,12.0
1979-07-28 00:02:47.920 ,3,0,0.,12.0,0.,12.0,0.,12.0,0.,12.0
1979-07-28 00:02:59.920 ,3,0,0.,12.0,0.,12.0,0.,12.0,0.,12.0
1979-07-28 00:03:11.920 ,4,1,0.,12.0,0.,12.0,0.,12.0,0.,12.0
1979-07-28 00:03:23.920 ,4,1,0.,12.0,0.,12.0,0.,12.0,0.,12.0
1979-07-28 00:03:35.920 ,4,0,0.,12.0,0.,12.0,0.,12.0,0.,12.0
1979-07-28 00:03:47.920 ,4,0,0.,12.0,0.,12.0,0.,12.0,0.,12.0
1979-07-28 00:04:47.920 ,0,0,0.,12.0,0.,12.0,0.,12.0,0.,12.0
1979-07-28 00:04:59.920 ,0,0,0.,12.0,0.,12.0,0.,12.0,0.,12.0
1979-07-28 00:05:11.920 ,0,0,0.,12.0,0.,12.0,0.,12.0,0.,12.0
1979-07-28 00:05:23.920 ,0,0,0.,12.0,0.,12.0,0.,12.0,0.,12.0
1979-07-28 00:05:35.920 ,7,1,0.,12.0,0.,12.0,0.,12.0,0.,12.0
1979-07-28 00:05:47.920 ,7,1,0.,12.0,0.,12.0,0.,12.0,0.,12.0
1979-07-28 00:05:59.920 ,7,0,0.,12.0,0.,12.0,0.,12.0,0.,12.0
1979-07-28 00:06:11.920 ,7,0,0.,12.0,0.,12.0,0.,12.0,0.,12.0
1979-07-28 00:06:23.920 ,7,1,0.,12.0,0.,12.0,0.,12.0,0.,12.0
1979-07-28 00:06:35.920 ,7,1,0.,12.0,0.,12.0,0.,12.0,0.,12.0
1979-07-28 00:06:47.920 ,7,0,0.,12.0,0.,12.0,0.,12.0,0.,12.0
1979-07-28 00:06:59.920 ,7,0,0.,12.0,0.,12.0,0.,12.0,0.,12.0
1979-07-28 00:07:11.920 ,6,1,0.,12.0,0.,12.0,0.,12.0,0.,12.0
1979-07-28 00:07:23.920 ,6,1,0.,12.0,0.,12.0,0.,12.0,0.,12.0
1979-07-28 00:07:35.920 ,6,0,0.,12.0,0.,12.0,0.,12.0,0.,12.0
1979-07-28 00:07:47.920 ,6,0,0.,12.0,0.,12.0,0.,12.0,0.,12.0
1979-07-28 00:07:59.920 ,5,1,0.,12.0,0.,12.0,0.,12.0,0.,12.0
1979-07-28 00:08:11.920 ,5,1,0.,12.0,0.,12.0,0.,12.0,0.,12.0
1979-07-28 00:08:23.920 ,5,0,0.,12.0,0.,12.0,0.,12.0,0.,12.0
1979-07-28 00:08:35.920 ,5,0,0.,12.0,0.,12.0,0.,12.0,0.,12.0
1979-07-28 00:08:47.920 ,4,1,0.,12.0,0.,12.0,0.,12.0,0.,12.0
1979-07-28 00:08:59.920 ,4,1,0.,12.0,0.,12.0,0.,12.0,0.,12.0
1979-07-28 00:09:11.920 ,4,0,0.,12.0,0.,12.0,0.,12.0,0.,12.0
1979-07-28 00:09:23.920 ,4,0,0.,12.0,0.,12.0,0.,12.0,0.,12.0
1979-07-28 00:09:35.920 ,3,1,0.,12.0,0.,12.0,0.,12.0,0.,12.0
1979-07-28 00:09:47.920 ,3,1,0.,12.0,0.,12.0,0.,12.0,0.,12.0
1979-07-28 00:09:59.920 ,3,0,0.,12.0,0.,12.0,0.,12.0,0.,12.0
1979-07-28 00:10:11.920 ,3,0,0.,12.0,0.,12.0,0.,12.0,0.,12.0
1979-07-28 00:10:23.920 ,2,1,0.,12.0,0.,12.0,0.,12.0,0.,12.0
1979-07-28 00:10:35.920 ,2,1,0.,12.0,0.,12.0,0.,12.0,0.,12.0
1979-07-28 00:10:47.920 ,2,0,0.,12.0,0.,12.0,0.,12.0,0.,12.0
1979-07-28 00:10:59.920 ,2,0,0.,12.0,0.,12.0,0.,12.0,0.,12.0
1979-07-28 00:11:11.920 ,1,1,0.,12.0,0.,12.0,0.,12.0,0.,12.0
1979-07-28 00:11:23.920 ,1,1,0.,12.0,0.,12.0,0.,12.0,0.,12.0
1979-07-28 00:11:35.920 ,1,0,0.,12.0,0.,12.0,0.,12.0,0.,12.0
1979-07-28 00:11:47.920 ,1,0,0.,12.0,0.,12.0,0.,12.0,0.,12.0
1979-07-28 00:11:59.920 ,0,1,0.,12.0,0.,12.0,0.,12.0,0.,12.0
1979-07-28 00:12:11.920 ,0,1,0.,12.0,0.,12.0,0.,12.0,0.,12.0
1979-07-28 00:12:23.920 ,0,0,0.,12.0,0.,12.0,0.,12.0,0.,12.0
1979-07-28 00:12:35.920 ,0,0,0.,12.0,0.,12.0,0.,12.0,0.,12.0
1979-07-28 00:12:47.920 ,0,1,0.,12.0,0.,12.0,0.,12.0,0.,12.0
1979-07-28 00:12:59.920 ,0,1,0.,12.0,0.,12.0,0.,12.0,0.,12.0
1979-07-28 00:13:11.920 ,0,0,0.,12.0,0.,12.0,0.,12.0,0.,12.0
1979-07-28 00:13:23.920 ,0,0,0.,12.0,0.,12.0,0.,12.0,0.,12.0
1979-07-28 00:13:35.920 ,1,1,0.,12.0,0.,12.0,0.,12.0,0.,12.0
1979-07-28 00:13:47.920 ,1,1,0.,12.0,0.,12.0,0.,12.0,0.,12.0
1979-07-28 00:13:59.920 ,1,0,0.,12.0,0.,12.0,0.,12.0,0.,12.0
1979-07-28 00:14:11.920 ,1,0,0.,12.0,0.,12.0,0.,12.0,0.,12.0
1979-07-28 00:14:23.920 ,2,1,0.,12.0,0.,12.0,0.,12.0,0.,12.0
1979-07-28 00:14:35.920 ,2,1,0.,12.0,0.,12.0,0.,12.0,0.,12.0
1979-07-28 00:14:47.920 ,2,0,0.,12.0,0.,12.0,0.,12.0,0.,12.0
1979-07-28 00:14:59.920 ,2,0,0.,12.0,0.,12.0,0.,12.0,0.,12.0
1979-07-28 00:15:11.920 ,3,1,0.,12.0,0.,12.0,0.,12.0,0.,12.0
1979-07-28 00:15:23.920 ,3,1,0.,12.0,0.,12.0,0.,12.0,0.,12.0
1979-07-28 00:15:35.920 ,3,0,1.,12.0,0.,12.0,0.,12.0,0.,12.0
1979-07-28 00:15:47.920 ,3,0,0.,12.0,0.,12.0,0.,12.0,0.,12.0
1979-07-28 00:15:59.920 ,4,1,0.,12.0,0.,12.0,0.,12.0,0.,12.0
1979-07-28 00:16:11.920 ,4,1,0.,12.0,0.,12.0,0.,12.0,0.,12.0
1979-07-28 00:16:23.920 ,4,0,0.,12.0,0.,12.0,0.,12.0,0.,12.0
1979-07-28 00:16:35.920 ,4,0,0.,12.0,0.,12.0,0.,12.0,0.,12.0
1979-07-28 00:16:47.920 ,5,1,0.,12.0,0.,12.0,0.,12.0,0.,12.0
1979-07-28 00:16:59.920 ,5,1,0.,12.0,0.,12.0,0.,12.0,0.,12.0
1979-07-28 00:17:11.920 ,5,0,0.,12.0,0.,12.0,0.,12.0,0.,12.0
1979-07-28 00:17:23.920 ,5,0,0.,12.0,0.,12.0,0.,12.0,0.,12.0
1979-07-28 00:17:35.920 ,6,1,0.,12.0,0.,12.0,0.,12.0,0.,12.0
1979-07-28 00:17:47.920 ,6,1,0.,12.0,0.,12.0,0.,12.0,0.,12.0
1979-07-28 00:17:59.920 ,6,0,0.,12.0,0.,12.0,0.,12.0,0.,12.0
1979-07-28 00:18:11.920 ,6,0,0.,12.0,0.,12.0,0.,12.0,0.,12.0
1979-07-28 00:18:23.920 ,7,0,0.,12.0,0.,12.0,0.,12.0,0.,12.0
1979-07-28 00:18:35.920 ,7,0,0.,12.0,0.,12.0,0.,12.0,0.,12.0
1979-07-28 00:18:47.920 ,7,0,0.,12.0,0.,12.0,0.,12.0,0.,12.0
1979-07-28 00:18:59.920 ,7,0,0.,12.0,0.,12.0,0.,12.0,0.,12.0
1979-07-28 00:19:11.920 ,4,1,0.,12.0,0.,12.0,0.,12.0,0.,12.0
1979-07-28 00:19:23.920 ,4,1,0.,12.0,0.,12.0,0.,12.0,0.,12.0
1979-07-28 00:19:35.920 ,0,1,0.,12.0,0.,12.0,0.,12.0,0.,12.0
1979-07-28 00:19:47.920 ,0,1,0.,12.0,0.,12.0,0.,12.0,0.,12.0
1979-07-28 00:19:59.920 ,3,1,0.,12.0,0.,12.0,0.,12.0,0.,12.0
1979-07-28 00:20:11.920 ,3,1,0.,12.0,0.,12.0,0.,12.0,0.,12.0
1979-07-28 00:20:23.920 ,7,1,1.,12.0,0.,12.0,0.,12.0,0.,12.0
1979-07-28 00:20:35.920 ,7,1,0.,12.0,0.,12.0,0.,12.0,0.,12.0
1979-07-28 00:20:47.920 ,4,1,0.,12.0,0.,12.0,0.,12.0,0.,12.0
1979-07-28 00:20:59.920 ,4,1,0.,12.0,0.,12.0,0.,12.0,0.,12.0
1979-07-28 00:21:11.920 ,0,1,0.,12.0,0.,12.0,0.,12.0,0.,12.0
1979-07-28 00:21:23.920 ,0,1,0.,12.0,0.,12.0,0.,12.0,0.,12.0
1979-07-28 00:21:35.920 ,3,1,0.,12.0,0.,12.0,0.,12.0,0.,12.0
1979-07-28 00:21:47.920 ,3,1,0.,12.0,0.,12.0,0.,12.0,0.,12.0
1979-07-28 00:21:59.920 ,7,1,0.,12.0,0.,12.0,0.,12.0,0.,12.0
1979-07-28 00:22:11.920 ,7,1,0.,12.0,0.,12.0,0.,12.0,0.,12.0
1979-07-28 00:22:23.920 ,4,1,0.,12.0,0.,12.0,0.,12.0,0.,12.0
1979-07-28 00:22:35.920 ,4,1,0.,12.0,0.,12.0,0.,12.0,0.,12.0
1979-07-28 00:22:47.920 ,0,1,0.,12.0,0.,12.0,0.,12.0,0.,12.0
1979-07-28 00:22:59.920 ,0,1,0.,12.0,0.,12.0,0.,12.0,0.,12.0
1979-07-28 00:23:11.920 ,3,1,0.,12.0,0.,12.0,0.,12.0,0.,12.0
1979-07-28 00:23:23.920 ,3,1,0.,12.0,0.,12.0,0.,12.0,0.,12.0
1979-07-28 00:23:35.920 ,7,1,0.,12.0,0.,12.0,0.,12.0,0.,12.0
1979-07-28 00:23:47.920 ,7,1,0.,12.0,0.,12.0,0.,12.0,0.,12.0
1979-07-28 00:23:59.920 ,4,1,0.,12.0,0.,12.0,0.,12.0,0.,12.0
1979-07-28 00:24:11.920 ,4,1,0.,12.0,0.,12.0,0.,12.0,0.,12.0
1979-07-28 00:24:23.920 ,0,1,1.,12.0,0.,12.0,0.,12.0,0.,12.0
1979-07-28 00:24:35.920 ,0,1,0.,12.0,0.,12.0,0.,12.0,0.,12.0
1979-07-28 00:24:47.920 ,3,1,0.,12.0,0.,12.0,0.,12.0,0.,12.0
1979-07-28 00:24:59.920 ,3,1,0.,12.0,0.,12.0,0.,12.0,0.,12.0
1979-07-28 00:25:11.920 ,7,1,0.,12.0,0.,12.0,0.,12.0,0.,12.0
1979-07-28 00:25:23.920 ,7,1,0.,12.0,0.,12.0,0.,12.0,0.,12.0
1979-07-28 00:25:35.920 ,4,1,0.,12.0,0.,12.0,0.,12.0,0.,12.0
1979-07-28 00:25:47.920 ,4,1,0.,12.0,0.,12.0,0.,12.0,0.,12.0
1979-07-28 00:25:59.920 ,0,1,0.,12.0,0.,12.0,0.,12.0,0.,12.0
1979-07-28 00:26:11.920 ,0,1,0.,12.0,0.,12.0,0.,12.0,0.,12.0
1979-07-28 00:26:23.920 ,3,1,0.,12.0,0.,12.0,0.,12.0,0.,12.0
1979-07-28 00:26:35.920 ,3,1,1.,12.0,0.,12.0,0.,12.0,0.,12.0
1979-07-28 00:26:47.920 ,7,1,0.,12.0,0.,12.0,0.,12.0,0.,12.0
1979-07-28 00:26:59.920 ,7,1,0.,12.0,0.,12.0,0.,12.0,0.,12.0
1979-07-28 00:27:11.920 ,4,1,0.,12.0,0.,12.0,0.,12.0,0.,12.0
1979-07-28 00:27:23.920 ,4,1,0.,12.0,0.,12.0,0.,12.0,0.,12.0
1979-07-28 00:27:35.920 ,0,1,0.,12.0,0.,12.0,0.,12.0,0.,12.0
1979-07-28 00:27:47.920 ,0,1,0.,12.0,0.,12.0,0.,12.0,0.,12.0
1979-07-28 00:27:59.920 ,3,1,1.,12.0,0.,12.0,0.,12.0,0.,12.0
1979-07-28 00:28:11.920 ,3,1,0.,12.0,0.,12.0,0.,12.0,0.,12.0
1979-07-28 00:28:23.920 ,7,1,0.,12.0,0.,12.0,0.,12.0,0.,12.0
1979-07-28 00:28:35.920 ,7,1,0.,12.0,0.,12.0,0.,12.0,0.,12.0
1979-07-28 00:28:47.920 ,4,1,0.,12.0,0.,12.0,0.,12.0,0.,12.0
1979-07-28 00:28:59.920 ,4,1,0.,12.0,0.,12.0,0.,12.0,0.,12.0
1979-07-28 00:29:11.920 ,0,1,0.,12.0,0.,12.0,0.,12.0,0.,12.0
1979-07-28 00:29:23.920 ,0,1,0.,12.0,0.,12.0,0.,12.0,0.,12.0
1979-07-28 00:29:35.920 ,0,0,0.,12.0,0.,12.0,0.,12.0,0.,12.0
1979-07-28 00:29:47.920 ,0,0,0.,12.0,0.,12.0,0.,12.0,0.,12.0
1979-07-28 00:29:59.920 ,0,0,0.,12.0,0.,12.0,0.,12.0,0.,12.0
1979-07-28 00:30:11.920 ,0,0,0.,12.0,0.,12.0,0.,12.0,0.,12.0
1979-07-28 00:30:23.920 ,5,1,0.,12.0,0.,12.0,0.,12.0,0.,12.0
1979-07-28 00:30:35.920 ,5,1,0.,12.0,0.,12.0,0.,12.0,0.,12.0
1979-07-28 00:30:47.920 ,5,0,0.,12.0,0.,12.0,0.,12.0,0.,12.0
1979-07-28 00:30:59.920 ,5,0,0.,12.0,0.,12.0,0.,12.0,0.,12.0
1979-07-28 00:31:11.920 ,4,1,0.,12.0,0.,12.0,0.,12.0,0.,12.0
1979-07-28 00:31:23.920 ,4,1,0.,12.0,0.,12.0,0.,12.0,0.,12.0
1979-07-28 00:31:35.920 ,4,0,0.,12.0,0.,12.0,0.,12.0,0.,12.0
1979-07-28 00:31:47.920 ,4,0,0.,12.0,0.,12.0,0.,12.0,0.,12.0
1979-07-28 00:31:59.920 ,3,1,0.,12.0,0.,12.0,0.,12.0,0.,12.0
1979-07-28 00:32:11.920 ,3,1,0.,12.0,0.,12.0,0.,12.0,0.,12.0
1979-07-28 00:32:23.920 ,3,0,0.,12.0,0.,12.0,0.,12.0,0.,12.0
1979-07-28 00:32:35.920 ,3,0,0.,12.0,0.,12.0,0.,12.0,0.,12.0
1979-07-28 00:32:47.920 ,2,1,0.,12.0,0.,12.0,0.,12.0,0.,12.0
1979-07-28 00:32:59.920 ,2,1,0.,12.0,0.,12.0,0.,12.0,0.,12.0
1979-07-28 00:33:11.920 ,2,0,0.,12.0,0.,12.0,0.,12.0,0.,12.0
1979-07-28 00:33:23.920 ,2,0,0.,12.0,0.,12.0,0.,12.0,0.,12.0
1979-07-28 00:33:35.920 ,1,1,0.,12.0,0.,12.0,0.,12.0,0.,12.0
1979-07-28 00:33:47.920 ,1,1,0.,12.0,0.,12.0,0.,12.0,0.,12.0
1979-07-28 00:33:59.920 ,1,0,0.,12.0,0.,12.0,0.,12.0,0.,12.0
1979-07-28 00:34:11.920 ,1,0,0.,12.0,0.,12.0,0.,12.0,0.,12.0
1979-07-28 00:34:23.920 ,0,1,0.,12.0,0.,12.0,0.,12.0,0.,12.0
1979-07-28 00:34:35.920 ,0,1,0.,12.0,0.,12.0,0.,12.0,0.,12.0
1979-07-28 00:34:47.920 ,0,0,1.,12.0,0.,12.0,0.,12.0,0.,12.0
1979-07-28 00:34:59.920 ,0,0,0.,12.0,0.,12.0,0.,12.0,0.,12.0
1979-07-28 00:35:11.920 ,0,1,0.,12.0,0.,12.0,0.,12.0,0.,12.0
1979-07-28 00:35:23.920 ,0,1,0.,12.0,0.,12.0,0.,12.0,0.,12.0
1979-07-28 00:35:35.920 ,0,0,0.,12.0,0.,12.0,0.,12.0,0.,12.0
1979-07-28 00:35:47.920 ,0,0,0.,12.0,0.,12.0,0.,12.0,0.,12.0
1979-07-28 00:35:59.920 ,1,1,0.,12.0,0.,12.0,0.,12.0,0.,12.0
1979-07-28 00:36:11.920 ,1,1,0.,12.0,0.,12.0,0.,12.0,0.,12.0
1979-07-28 00:36:23.920 ,1,0,0.,12.0,0.,12.0,0.,12.0,0.,12.0
1979-07-28 00:36:35.920 ,1,0,0.,12.0,0.,12.0,0.,12.0,0.,12.0
1979-07-28 00:36:47.920 ,2,1,0.,12.0,0.,12.0,0.,12.0,0.,12.0
1979-07-28 00:36:59.920 ,2,1,0.,12.0,0.,12.0,0.,12.0,0.,12.0
1979-07-28 00:37:11.920 ,2,0,0.,12.0,0.,12.0,0.,12.0,0.,12.0
1979-07-28 00:37:23.920 ,2,0,0.,12.0,0.,12.0,0.,12.0,0.,12.0
1979-07-28 00:37:35.920 ,3,1,0.,12.0,0.,12.0,0.,12.0,1.,12.0
1979-07-28 00:37:47.920 ,3,1,0.,12.0,0.,12.0,0.,12.0,0.,12.0
1979-07-28 00:37:59.920 ,3,0,0.,12.0,0.,12.0,0.,12.0,0.,12.0
1979-07-28 00:38:11.920 ,3,0,0.,12.0,0.,12.0,0.,12.0,0.,12.0
1979-07-28 00:38:23.920 ,4,1,0.,12.0,0.,12.0,0.,12.0,0.,12.0
1979-07-28 00:38:35.920 ,4,1,0.,12.0,0.,12.0,0.,12.0,0.,12.0
1979-07-28 00:38:47.920 ,4,0,0.,12.0,0.,12.0,0.,12.0,0.,12.0
1979-07-28 00:38:59.920 ,4,0,0.,12.0,0.,12.0,0.,12.0,0.,12.0
1979-07-28 00:39:11.920 ,5,1,0.,12.0,0.,12.0,0.,12.0,0.,12.0
1979-07-28 00:39:23.920 ,5,1,0.,12.0,0.,12.0,0.,12.0,0.,12.0
1979-07-28 00:39:35.920 ,5,0,0.,12.0,0.,12.0,0.,12.0,0.,12.0
1979-07-28 00:39:47.920 ,5,0,0.,12.0,0.,12.0,0.,12.0,0.,12.0
1979-07-28 00:39:59.920 ,6,1,0.,12.0,0.,12.0,0.,12.0,0.,12.0
1979-07-28 00:40:11.920 ,6,1,0.,12.0,0.,12.0,0.,12.0,0.,12.0
1979-07-28 00:40:23.920 ,6,0,0.,12.0,0.,12.0,0.,12.0,0.,12.0
1979-07-28 00:40:35.920 ,6,0,0.,12.0,0.,12.0,0.,12.0,0.,12.0
1979-07-28 00:40:47.920 ,7,1,1.,12.0,0.,12.0,0.,12.0,0.,12.0
1979-07-28 00:40:59.920 ,7,1,0.,12.0,0.,12.0,0.,12.0,0.,12.0
1979-07-28 00:41:11.920 ,7,0,0.,12.0,0.,12.0,0.,12.0,0.,12.0
1979-07-28 00:41:23.920 ,7,0,0.,12.0,0.,12.0,0.,12.0,0.,12.0
1979-07-28 00:41:35.920 ,7,1,0.,12.0,0.,12.0,0.,12.0,0.,12.0
1979-07-28 00:41:47.920 ,7,1,0.,12.0,0.,12.0,0.,12.0,0.,12.0
1979-07-28 00:41:59.920 ,7,0,0.,12.0,0.,12.0,0.,12.0,0.,12.0
1979-07-28 00:42:11.920 ,7,0,0.,12.0,0.,12.0,0.,12.0,0.,12.0
1979-07-28 00:42:23.920 ,6,1,0.,12.0,0.,12.0,0.,12.0,0.,12.0
1979-07-28 00:42:35.920 ,6,1,0.,12.0,0.,12.0,0.,12.0,0.,12.0
1979-07-28 00:42:47.920 ,6,0,0.,12.0,0.,12.0,0.,12.0,0.,12.0
1979-07-28 00:42:59.920 ,6,0,0.,12.0,0.,12.0,0.,12.0,0.,12.0
1979-07-28 00:43:11.920 ,5,1,0.,12.0,0.,12.0,0.,12.0,0.,12.0
1979-07-28 00:43:23.920 ,5,1,0.,12.0,0.,12.0,0.,12.0,0.,12.0
1979-07-28 00:43:35.920 ,5,0,0.,12.0,0.,12.0,0.,12.0,0.,12.0
1979-07-28 00:43:47.920 ,5,0,0.,12.0,0.,12.0,0.,12.0,0.,12.0
1979-07-28 00:43:59.920 ,4,1,0.,12.0,0.,12.0,0.,12.0,0.,12.0
1979-07-28 00:44:11.920 ,4,1,0.,12.0,0.,12.0,0.,12.0,0.,12.0
1979-07-28 00:44:23.920 ,4,0,0.,12.0,0.,12.0,0.,12.0,0.,12.0
1979-07-28 00:44:35.920 ,4,0,0.,12.0,0.,12.0,0.,12.0,0.,12.0
1979-07-28 00:44:47.920 ,3,1,0.,12.0,0.,12.0,0.,12.0,0.,12.0
1979-07-28 00:44:59.920 ,3,1,0.,12.0,0.,12.0,0.,12.0,0.,12.0
1979-07-28 00:45:11.920 ,3,0,0.,12.0,0.,12.0,0.,12.0,0.,12.0
1979-07-28 00:45:23.920 ,3,0,0.,12.0,0.,12.0,0.,12.0,0.,12.0
1979-07-28 00:45:35.920 ,2,1,0.,12.0,0.,12.0,0.,12.0,0.,12.0
1979-07-28 00:45:47.920 ,2,1,0.,12.0,0.,12.0,0.,12.0,0.,12.0
1979-07-28 00:45:59.920 ,2,0,0.,12.0,0.,12.0,0.,12.0,0.,12.0
1979-07-28 00:46:11.920 ,2,0,0.,12.0,0.,12.0,0.,12.0,0.,12.0
1979-07-28 00:46:23.920 ,1,1,0.,12.0,0.,12.0,0.,12.0,0.,12.0
1979-07-28 00:46:35.920 ,1,1,0.,12.0,0.,12.0,0.,12.0,0.,12.0
1979-07-28 00:46:47.920 ,1,0,0.,12.0,0.,12.0,0.,12.0,0.,12.0
1979-07-28 00:46:59.920 ,1,0,0.,12.0,0.,12.0,0.,12.0,0.,12.0
1979-07-28 00:47:11.920 ,0,1,0.,12.0,0.,12.0,0.,12.0,0.,12.0
1979-07-28 00:47:23.920 ,0,1,0.,12.0,0.,12.0,0.,12.0,0.,12.0
1979-07-28 00:47:35.920 ,0,0,0.,12.0,0.,12.0,0.,12.0,0.,12.0
1979-07-28 00:47:47.920 ,0,0,0.,12.0,0.,12.0,0.,12.0,0.,12.0
1979-07-28 00:47:59.920 ,0,1,1.,12.0,0.,12.0,0.,12.0,0.,12.0
1979-07-28 00:48:11.920 ,0,1,1.,12.0,0.,12.0,0.,12.0,0.,12.0
1979-07-28 00:48:23.920 ,0,0,0.,12.0,0.,12.0,0.,12.0,0.,12.0
1979-07-28 00:48:35.920 ,0,0,0.,12.0,0.,12.0,0.,12.0,0.,12.0
1979-07-28 00:48:47.920 ,1,1,1.,12.0,0.,12.0,0.,12.0,0.,12.0
1979-07-28 00:48:59.920 ,1,1,0.,12.0,0.,12.0,0.,12.0,0.,12.0
1979-07-28 00:49:11.920 ,1,0,0.,12.0,0.,12.0,0.,12.0,0.,12.0
1979-07-28 00:49:23.920 ,1,0,0.,12.0,0.,12.0,0.,12.0,0.,12.0
1979-07-28 00:49:35.920 ,2,1,0.,12.0,0.,12.0,0.,12.0,0.,12.0
1979-07-28 00:49:47.920 ,2,1,0.,12.0,0.,12.0,0.,12.0,0.,12.0
1979-07-28 00:49:59.920 ,2,0,0.,12.0,0.,12.0,0.,12.0,0.,12.0
1979-07-28 00:50:11.920 ,2,0,0.,12.0,0.,12.0,0.,12.0,0.,12.0
1979-07-28 00:50:23.920 ,3,1,0.,12.0,0.,12.0,0.,12.0,0.,12.0
1979-07-28 00:50:35.920 ,3,1,0.,12.0,0.,12.0,0.,12.0,0.,12.0
1979-07-28 00:50:47.920 ,3,0,1.,12.0,0.,12.0,0.,12.0,0.,12.0
1979-07-28 00:50:59.920 ,3,0,0.,12.0,0.,12.0,0.,12.0,0.,12.0
1979-07-28 00:51:11.920 ,4,1,0.,12.0,0.,12.0,0.,12.0,0.,12.0
1979-07-28 00:51:23.920 ,4,1,0.,12.0,0.,12.0,0.,12.0,0.,12.0
1979-07-28 00:51:35.920 ,4,0,0.,12.0,0.,12.0,0.,12.0,0.,12.0
1979-07-28 00:51:47.920 ,4,0,0.,12.0,0.,12.0,0.,12.0,0.,12.0
1979-07-28 00:51:59.920 ,5,1,0.,12.0,0.,12.0,0.,12.0,0.,12.0
1979-07-28 00:52:11.920 ,5,1,0.,12.0,0.,12.0,0.,12.0,0.,12.0
1979-07-28 00:52:23.920 ,5,0,0.,12.0,0.,12.0,0.,12.0,0.,12.0
1979-07-28 00:52:35.920 ,5,0,0.,12.0,0.,12.0,0.,12.0,0.,12.0
1979-07-28 00:52:47.920 ,6,1,0.,12.0,0.,12.0,0.,12.0,0.,12.0
1979-07-28 00:52:59.920 ,6,1,0.,12.0,0.,12.0,0.,12.0,0.,12.0
1979-07-28 00:53:11.920 ,6,0,0.,12.0,0.,12.0,0.,12.0,0.,12.0
1979-07-28 00:53:23.920 ,6,0,0.,12.0,0.,12.0,0.,12.0,0.,12.0
1979-07-28 00:53:35.920 ,7,1,0.,12.0,0.,12.0,0.,12.0,0.,12.0
1979-07-28 00:53:47.920 ,7,1,0.,12.0,0.,12.0,0.,12.0,0.,12.0
1979-07-28 00:53:59.920 ,7,0,0.,12.0,0.,12.0,0.,12.0,0.,12.0
1979-07-28 00:54:11.920 ,7,0,0.,12.0,0.,12.0,0.,12.0,0.,12.0
1979-07-28 00:54:23.920 ,7,1,0.,12.0,0.,12.0,0.,12.0,0.,12.0
1979-07-28 00:54:35.920 ,7,1,0.,12.0,0.,12.0,0.,12.0,0.,12.0
1979-07-28 00:54:47.920 ,7,0,0.,12.0,0.,12.0,0.,12.0,0.,12.0
1979-07-28 00:54:59.920 ,7,0,0.,12.0,0.,12.0,0.,12.0,0.,12.0
1979-07-28 00:55:11.920 ,6,1,0.,12.0,0.,12.0,0.,12.0,0.,12.0
1979-07-28 00:55:23.920 ,6,1,0.,12.0,0.,12.0,0.,12.0,0.,12.0
1979-07-28 00:55:35.920 ,6,0,0.,12.0,0.,12.0,0.,12.0,0.,12.0
1979-07-28 00:55:47.920 ,6,0,0.,12.0,0.,12.0,0.,12.0,0.,12.0
1979-07-28 00:55:59.920 ,5,1,0.,12.0,0.,12.0,0.,12.0,0.,12.0
1979-07-28 00:56:11.920 ,5,1,0.,12.0,0.,12.0,0.,12.0,0.,12.0
1979-07-28 00:56:23.920 ,5,0,0.,12.0,0.,12.0,0.,12.0,0.,12.0
1979-07-28 00:56:35.920 ,5,0,0.,12.0,0.,12.0,0.,12.0,0.,12.0
1979-07-28 00:56:47.920 ,4,1,0.,12.0,0.,12.0,0.,12.0,0.,12.0
1979-07-28 00:56:59.920 ,4,1,0.,12.0,0.,12.0,0.,12.0,0.,12.0
1979-07-28 00:57:11.920 ,0,0,0.,12.0,0.,12.0,0.,12.0,0.,12.0
1979-07-28 00:57:23.920 ,0,0,0.,12.0,0.,12.0,0.,12.0,0.,12.0
1979-07-28 00:57:35.920 ,3,1,0.,12.0,0.,12.0,0.,12.0,0.,12.0
1979-07-28 00:57:47.920 ,3,1,0.,12.0,0.,12.0,0.,12.0,0.,12.0
1979-07-28 00:57:59.920 ,3,0,0.,12.0,0.,12.0,0.,12.0,0.,12.0
1979-07-28 00:58:11.920 ,3,0,0.,12.0,0.,12.0,0.,12.0,0.,12.0
1979-07-28 00:58:23.920 ,2,1,0.,12.0,0.,12.0,0.,12.0,0.,12.0
1979-07-28 00:58:35.920 ,2,1,0.,12.0,0.,12.0,0.,12.0,0.,12.0
1979-07-28 00:58:47.920 ,2,0,0.,12.0,0.,12.0,0.,12.0,0.,12.0
1979-07-28 00:58:59.920 ,2,0,0.,12.0,0.,12.0,0.,12.0,0.,12.0
1979-07-28 00:59:11.920 ,1,1,0.,12.0,0.,12.0,0.,12.0,0.,12.0
1979-07-28 00:59:23.920 ,1,1,1.,12.0,0.,12.0,0.,12.0,0.,12.0
1979-07-28 00:59:35.920 ,1,0,0.,12.0,0.,12.0,0.,12.0,0.,12.0
1979-07-28 00:59:47.920 ,1,0,0.,12.0,0.,12.0,0.,12.0,0.,12.0
1979-07-28 00:59:59.920 ,0,1,0.,12.0,0.,12.0,0.,12.0,0.,12.0
1979-07-28 01:00:11.920 ,0,1,0.,12.0,0.,12.0,0.,12.0,0.,12.0
1979-07-28 01:00:23.920 ,0,0,0.,12.0,0.,12.0,0.,12.0,0.,12.0
1979-07-28 01:00:35.920 ,0,0,0.,12.0,0.,12.0,0.,12.0,0.,12.0
1979-07-28 01:00:47.920 ,0,1,0.,12.0,0.,12.0,0.,12.0,0.,12.0
1979-07-28 01:00:59.920 ,0,1,0.,12.0,0.,12.0,0.,12.0,0.,12.0
1979-07-28 01:01:11.920 ,0,0,0.,12.0,0.,12.0,0.,12.0,0.,12.0
1979-07-28 01:01:23.920 ,0,0,0.,12.0,0.,12.0,0.,12.0,0.,12.0
1979-07-28 01:01:35.920 ,1,1,0.,12.0,0.,12.0,0.,12.0,0.,12.0
1979-07-28 01:01:47.920 ,1,1,1.,12.0,0.,12.0,0.,12.0,0.,12.0
1979-07-28 01:01:59.920 ,1,0,0.,12.0,0.,12.0,0.,12.0,0.,12.0
1979-07-28 01:02:11.920 ,1,0,0.,12.0,0.,12.0,0.,12.0,0.,12.0
1979-07-28 01:02:23.920 ,2,1,0.,12.0,0.,12.0,0.,12.0,0.,12.0
1979-07-28 01:02:35.920 ,2,1,0.,12.0,0.,12.0,0.,12.0,0.,12.0
1979-07-28 01:02:47.920 ,2,0,0.,12.0,0.,12.0,0.,12.0,0.,12.0
1979-07-28 01:02:59.920 ,2,0,0.,12.0,0.,12.0,0.,12.0,0.,12.0
1979-07-28 01:03:11.920 ,3,1,0.,12.0,0.,12.0,0.,12.0,0.,12.0
1979-07-28 01:03:23.920 ,3,1,0.,12.0,0.,12.0,0.,12.0,0.,12.0
1979-07-28 01:03:35.920 ,3,0,0.,12.0,0.,12.0,0.,12.0,0.,12.0
1979-07-28 01:03:47.920 ,3,0,0.,12.0,0.,12.0,0.,12.0,0.,12.0
1979-07-28 01:03:59.920 ,4,1,0.,12.0,0.,12.0,0.,12.0,0.,12.0
1979-07-28 01:04:11.920 ,4,1,0.,12.0,0.,12.0,0.,12.0,0.,12.0
1979-07-28 01:04:23.920 ,4,0,0.,12.0,0.,12.0,0.,12.0,0.,12.0
1979-07-28 01:04:35.920 ,4,0,0.,12.0,0.,12.0,0.,12.0,0.,12.0
1979-07-28 01:04:47.920 ,5,1,0.,12.0,0.,12.0,0.,12.0,0.,12.0
1979-07-28 01:04:59.920 ,5,1,0.,12.0,0.,12.0,0.,12.0,0.,12.0
1979-07-28 01:05:11.920 ,5,0,0.,12.0,0.,12.0,0.,12.0,0.,12.0
1979-07-28 01:05:23.920 ,5,0,0.,12.0,0.,12.0,0.,12.0,0.,12.0
1979-07-28 01:05:35.920 ,6,1,0.,12.0,0.,12.0,0.,12.0,0.,12.0
1979-07-28 01:05:47.920 ,6,1,0.,12.0,0.,12.0,0.,12.0,0.,12.0
1979-07-28 01:05:59.920 ,6,0,0.,12.0,0.,12.0,0.,12.0,0.,12.0
1979-07-28 01:06:11.920 ,6,0,0.,12.0,0.,12.0,0.,12.0,0.,12.0
1979-07-28 01:06:23.920 ,7,0,0.,12.0,0.,12.0,0.,12.0,0.,12.0
1979-07-28 01:06:35.920 ,7,0,0.,12.0,0.,12.0,0.,12.0,0.,12.0
1979-07-28 01:06:47.920 ,0,0,0.,12.0,0.,12.0,0.,12.0,0.,12.0
1979-07-28 01:06:59.920 ,0,0,0.,12.0,0.,12.0,0.,12.0,0.,12.0
1979-07-28 01:18:04.720 ,7,0,,0,,0,,0,,0
1979-07-28 01:18:16.720 ,7,0,0.,12.0,0.,12.0,0.,12.0,0.,12.0
1979-07-28 01:18:23.920 ,7,1,0.,12.0,0.,12.0,0.,12.0,0.,12.0
1979-07-28 01:18:35.920 ,7,1,0.,12.0,0.,12.0,0.,12.0,0.,12.0
1979-07-28 01:18:47.920 ,7,0,0.,12.0,0.,12.0,0.,12.0,0.,12.0
1979-07-28 01:18:59.920 ,7,0,0.,12.0,0.,12.0,0.,12.0,0.,12.0
1979-07-28 01:19:11.920 ,4,1,0.,12.0,0.,12.0,0.,12.0,0.,12.0
1979-07-28 01:19:23.920 ,4,1,0.,12.0,0.,12.0,0.,12.0,0.,12.0
1979-07-28 01:19:35.920 ,4,0,0.,12.0,0.,12.0,0.,12.0,0.,12.0
1979-07-28 01:19:47.920 ,4,0,0.,12.0,0.,12.0,0.,12.0,0.,12.0
1979-07-28 01:19:59.920 ,3,1,0.,12.0,0.,12.0,0.,12.0,0.,12.0
1979-07-28 01:20:11.920 ,3,1,0.,12.0,0.,12.0,0.,12.0,0.,12.0
1979-07-28 01:20:23.920 ,3,0,0.,12.0,0.,12.0,0.,12.0,0.,12.0
1979-07-28 01:20:35.920 ,3,0,0.,12.0,0.,12.0,0.,12.0,0.,12.0
1979-07-28 01:20:47.920 ,2,1,0.,12.0,0.,12.0,0.,12.0,0.,12.0
1979-07-28 01:20:59.920 ,2,1,0.,12.0,0.,12.0,0.,12.0,0.,12.0
1979-07-28 01:21:11.920 ,2,0,1.,12.0,0.,12.0,0.,12.0,0.,12.0
1979-07-28 01:21:23.920 ,2,0,0.,12.0,0.,12.0,0.,12.0,0.,12.0
1979-07-28 01:21:35.920 ,1,1,0.,12.0,0.,12.0,0.,12.0,0.,12.0
1979-07-28 01:21:47.920 ,1,1,0.,12.0,0.,12.0,0.,12.0,0.,12.0
1979-07-28 01:21:59.920 ,1,0,0.,12.0,0.,12.0,0.,12.0,0.,12.0
1979-07-28 01:22:11.920 ,1,0,0.,12.0,0.,12.0,0.,12.0,0.,12.0
1979-07-28 01:22:23.920 ,0,1,0.,12.0,0.,12.0,0.,12.0,0.,12.0
1979-07-28 01:22:35.920 ,0,1,0.,12.0,0.,12.0,0.,12.0,1.,12.0
1979-07-28 01:22:47.920 ,0,0,0.,12.0,0.,12.0,0.,12.0,0.,12.0
1979-07-28 01:22:59.920 ,0,0,0.,12.0,0.,12.0,0.,12.0,0.,12.0
1979-07-28 01:23:11.920 ,0,1,0.,12.0,0.,12.0,0.,12.0,0.,12.0
1979-07-28 01:23:23.920 ,0,1,0.,12.0,0.,12.0,0.,12.0,0.,12.0
1979-07-28 01:23:35.920 ,0,0,0.,12.0,0.,12.0,0.,12.0,0.,12.0
1979-07-28 01:23:47.920 ,0,0,1.,12.0,0.,12.0,0.,12.0,0.,12.0
1979-07-28 01:23:59.920 ,1,1,0.,12.0,0.,12.0,0.,12.0,0.,12.0
1979-07-28 01:24:11.920 ,1,1,0.,12.0,0.,12.0,0.,12.0,0.,12.0
1979-07-28 01:24:23.920 ,1,0,0.,12.0,0.,12.0,0.,12.0,0.,12.0
1979-07-28 01:24:35.920 ,1,0,0.,12.0,0.,12.0,0.,12.0,0.,12.0
1979-07-28 01:24:47.920 ,2,1,0.,12.0,0.,12.0,0.,12.0,0.,12.0
1979-07-28 01:24:59.920 ,2,1,0.,12.0,0.,12.0,0.,12.0,0.,12.0
1979-07-28 01:25:11.920 ,2,0,0.,12.0,0.,12.0,0.,12.0,0.,12.0
1979-07-28 01:25:23.920 ,2,0,0.,12.0,0.,12.0,0.,12.0,0.,12.0
1979-07-28 01:25:35.920 ,3,1,0.,12.0,0.,12.0,0.,12.0,0.,12.0
1979-07-28 01:25:47.920 ,3,1,0.,12.0,0.,12.0,0.,12.0,0.,12.0
1979-07-28 01:26:23.920 ,4,1,0.,12.0,0.,12.0,0.,12.0,0.,12.0
1979-07-28 01:26:35.920 ,4,1,0.,12.0,0.,12.0,0.,12.0,0.,12.0
1979-07-28 01:26:47.920 ,4,0,0.,12.0,0.,12.0,0.,12.0,0.,12.0
1979-07-28 01:26:59.920 ,4,0,0.,12.0,0.,12.0,0.,12.0,0.,12.0
1979-07-28 01:27:11.920 ,5,1,0.,12.0,0.,12.0,0.,12.0,0.,12.0
1979-07-28 01:27:23.920 ,5,1,0.,12.0,0.,12.0,0.,12.0,0.,12.0
1979-07-28 01:27:35.920 ,5,0,0.,12.0,0.,12.0,0.,12.0,0.,12.0
1979-07-28 01:27:47.920 ,5,0,0.,12.0,0.,12.0,0.,12.0,0.,12.0
1979-07-28 01:27:59.920 ,6,1,1.,12.0,0.,12.0,0.,12.0,0.,12.0
1979-07-28 01:28:11.920 ,6,1,0.,12.0,0.,12.0,0.,12.0,0.,12.0
1979-07-28 01:28:23.920 ,6,0,0.,12.0,0.,12.0,0.,12.0,0.,12.0
1979-07-28 01:28:35.920 ,6,0,0.,12.0,0.,12.0,0.,12.0,0.,12.0
1979-07-28 01:28:47.920 ,7,1,0.,12.0,0.,12.0,0.,12.0,0.,12.0
1979-07-28 01:28:59.920 ,7,1,0.,12.0,0.,12.0,0.,12.0,0.,12.0
1979-07-28 01:29:11.920 ,7,0,0.,12.0,0.,12.0,0.,12.0,0.,12.0
1979-07-28 01:29:23.920 ,7,0,0.,12.0,0.,12.0,0.,12.0,0.,12.0